TimeMDT,TemperatureF,Dew PointF,Humidity,Sea Level PressureIn,VisibilityMPH,Wind Direction,Wind SpeedMPH,Gust SpeedMPH,PrecipitationIn,Events,Conditions,WindDirDegrees,DateUTC
12:15 AM,41.0,19.4,42,30.57,10.0,Calm,Calm,-,N/A,,Clear,0,2013-05-02 06:15:00
12:35 AM,39.2,19.4,45,30.57,10.0,Calm,Calm,-,N/A,,Unknown,0,2013-05-02 06:35:00
12:55 AM,41.0,19.4,42,30.57,10.0,Calm,Calm,-,N/A,,Unknown,0,2013-05-02 06:55:00
1:15 AM,39.2,19.4,45,30.57,10.0,Calm,Calm,-,N/A,,Unknown,0,2013-05-02 07:15:00
1:35 AM,37.4,19.4,48,30.57,10.0,ENE,3.5,-,N/A,,Clear,70,2013-05-02 07:35:00
1:55 AM,32.0,23.0,69,30.57,10.0,SSE,4.6,-,N/A,,Clear,160,2013-05-02 07:55:00
2:15 AM,35.6,19.4,52,30.57,10.0,Calm,Calm,-,N/A,,Clear,0,2013-05-02 08:15:00
2:35 AM,32.0,19.4,60,30.58,10.0,SE,3.5,-,N/A,,Clear,140,2013-05-02 08:35:00
2:55 AM,32.0,19.4,60,30.58,10.0,ESE,3.5,-,N/A,,Clear,110,2013-05-02 08:55:00
3:15 AM,32.0,19.4,60,30.58,10.0,SSE,4.6,-,N/A,,Clear,150,2013-05-02 09:15:00
3:35 AM,32.0,17.6,55,30.58,10.0,ESE,3.5,-,N/A,,Clear,120,2013-05-02 09:35:00
3:55 AM,30.2,19.4,64,30.59,10.0,SE,3.5,-,N/A,,Clear,140,2013-05-02 09:55:00
4:15 AM,32.0,17.6,55,30.58,10.0,ESE,5.8,-,N/A,,Clear,110,2013-05-02 10:15:00
4:35 AM,32.0,17.6,55,30.59,10.0,Calm,Calm,-,N/A,,Clear,0,2013-05-02 10:35:00
4:55 AM,32.0,17.6,55,30.58,10.0,Calm,Calm,-,N/A,,Clear,0,2013-05-02 10:55:00
5:15 AM,30.2,19.4,64,30.59,10.0,SE,3.5,-,N/A,,Clear,140,2013-05-02 11:15:00
5:35 AM,28.4,19.4,69,30.59,10.0,SSE,3.5,-,N/A,,Clear,150,2013-05-02 11:35:00
5:55 AM,32.0,17.6,55,30.59,10.0,SE,5.8,-,N/A,,Clear,130,2013-05-02 11:55:00
6:15 AM,33.8,17.6,52,30.59,10.0,SE,8.1,-,N/A,,Clear,130,2013-05-02 12:15:00
6:35 AM,32.0,19.4,60,30.60,10.0,SE,5.8,-,N/A,,Clear,140,2013-05-02 12:35:00
6:55 AM,33.8,17.6,52,30.60,10.0,SE,6.9,-,N/A,,Clear,140,2013-05-02 12:55:00
7:15 AM,37.4,17.6,45,30.61,10.0,Calm,Calm,-,N/A,,Clear,0,2013-05-02 13:15:00
7:35 AM,39.2,17.6,42,30.61,10.0,Calm,Calm,-,N/A,,Clear,0,2013-05-02 13:35:00
7:55 AM,41.0,17.6,39,30.60,10.0,SE,6.9,-,N/A,,Clear,140,2013-05-02 13:55:00
8:15 AM,44.6,17.6,34,30.61,10.0,SSE,10.4,-,N/A,,Clear,150,2013-05-02 14:15:00
8:35 AM,46.4,17.6,32,30.61,10.0,SE,8.1,-,N/A,,Clear,130,2013-05-02 14:35:00
8:55 AM,48.2,17.6,30,30.61,10.0,SE,8.1,-,N/A,,Clear,130,2013-05-02 14:55:00
9:15 AM,50.0,17.6,28,30.61,10.0,SSE,8.1,-,N/A,,Clear,150,2013-05-02 15:15:00
9:35 AM,53.6,17.6,24,30.60,8.0,SSE,5.8,-,N/A,,Clear,160,2013-05-02 15:35:00
9:55 AM,55.4,15.8,21,30.59,10.0,South,9.2,-,N/A,,Clear,170,2013-05-02 15:55:00
10:15 AM,55.4,15.8,21,30.59,10.0,SSE,8.1,-,N/A,,Clear,160,2013-05-02 16:15:00
10:35 AM,57.2,15.8,20,30.58,10.0,ESE,10.4,-,N/A,,Clear,120,2013-05-02 16:35:00
10:55 AM,59.0,15.8,19,30.57,10.0,SE,8.1,-,N/A,,Clear,140,2013-05-02 16:55:00
11:15 AM,59.0,15.8,19,30.56,10.0,SE,8.1,-,N/A,,Clear,130,2013-05-02 17:15:00
11:35 AM,60.8,15.8,17,30.56,10.0,SSE,6.9,-,N/A,,Clear,160,2013-05-02 17:35:00
11:55 AM,62.6,15.8,16,30.55,10.0,SSE,8.1,-,N/A,,Clear,150,2013-05-02 17:55:00
12:15 PM,62.6,14.0,15,30.54,10.0,SSE,8.1,16.1,N/A,,Clear,160,2013-05-02 18:15:00
12:35 PM,64.4,14.0,14,30.54,10.0,ESE,6.9,-,N/A,,Clear,120,2013-05-02 18:35:00
12:55 PM,64.4,14.0,14,30.52,10.0,SSE,12.7,19.6,N/A,,Clear,160,2013-05-02 18:55:00
1:15 PM,64.4,12.2,13,30.51,10.0,SSE,3.5,-,N/A,,Clear,160,2013-05-02 19:15:00
1:35 PM,66.2,12.2,12,30.50,10.0,SSE,6.9,-,N/A,,Clear,150,2013-05-02 19:35:00
1:55 PM,66.2,12.2,12,30.48,10.0,SSE,8.1,-,N/A,,Clear,160,2013-05-02 19:55:00
2:15 PM,68.0,12.2,12,30.47,10.0,SSE,8.1,-,N/A,,Clear,150,2013-05-02 20:15:00
2:35 PM,68.0,10.4,11,30.46,10.0,ESE,9.2,-,N/A,,Clear,120,2013-05-02 20:35:00
2:55 PM,68.0,8.6,10,30.45,10.0,ESE,6.9,-,N/A,,Clear,110,2013-05-02 20:55:00
3:15 PM,69.8,6.8,9,30.43,10.0,ESE,10.4,20.7,N/A,,Clear,120,2013-05-02 21:15:00
3:35 PM,71.6,6.8,8,30.42,10.0,SE,11.5,17.3,N/A,,Clear,130,2013-05-02 21:35:00
3:55 PM,71.6,6.8,8,30.40,10.0,SE,11.5,17.3,N/A,,Clear,130,2013-05-02 21:55:00
4:15 PM,71.6,8.6,9,30.38,10.0,SSE,11.5,16.1,N/A,,Clear,150,2013-05-02 22:15:00
4:35 PM,71.6,6.8,8,30.37,10.0,SSE,5.8,-,N/A,,Clear,150,2013-05-02 22:35:00
4:55 PM,71.6,8.6,9,30.36,10.0,SE,10.4,16.1,N/A,,Clear,130,2013-05-02 22:55:00
5:15 PM,71.6,10.4,9,30.36,10.0,ESE,10.4,-,N/A,,Clear,120,2013-05-02 23:15:00
5:35 PM,71.6,10.4,9,30.35,10.0,SE,5.8,-,N/A,,Clear,140,2013-05-02 23:35:00
5:55 PM,71.6,8.6,9,30.34,10.0,ESE,8.1,-,N/A,,Clear,110,2013-05-02 23:55:00
6:15 PM,71.6,8.6,9,30.33,10.0,East,8.1,-,N/A,,Clear,100,2013-05-03 00:15:00
6:35 PM,71.6,6.8,8,30.32,10.0,ESE,11.5,-,N/A,,Clear,110,2013-05-03 00:35:00
6:55 PM,71.6,8.6,9,30.31,10.0,East,6.9,-,N/A,,Clear,100,2013-05-03 00:55:00
7:15 PM,69.8,8.6,9,30.30,10.0,ESE,8.1,-,N/A,,Clear,110,2013-05-03 01:15:00
7:35 PM,68.0,10.4,11,30.30,10.0,East,5.8,-,N/A,,Clear,100,2013-05-03 01:35:00
7:55 PM,68.0,12.2,12,30.30,10.0,East,3.5,-,N/A,,Clear,90,2013-05-03 01:55:00
8:15 PM,66.2,12.2,12,30.29,10.0,ENE,3.5,-,N/A,,Clear,60,2013-05-03 02:15:00
8:35 PM,64.4,15.8,15,30.29,10.0,NE,3.5,-,N/A,,Clear,50,2013-05-03 02:35:00
8:55 PM,60.8,15.8,17,30.29,10.0,NNE,3.5,-,N/A,,Clear,30,2013-05-03 02:55:00
9:15 PM,62.6,14.0,15,30.29,10.0,North,4.6,-,N/A,,Clear,10,2013-05-03 03:15:00
9:35 PM,62.6,14.0,15,30.29,10.0,NNE,4.6,-,N/A,,Clear,30,2013-05-03 03:35:00
9:55 PM,59.0,14.0,17,30.28,10.0,NE,6.9,-,N/A,,Clear,40,2013-05-03 03:55:00
10:15 PM,59.0,14.0,17,30.28,10.0,NE,5.8,-,N/A,,Clear,50,2013-05-03 04:15:00
10:35 PM,57.2,15.8,20,30.28,10.0,Calm,Calm,-,N/A,,Clear,0,2013-05-03 04:35:00
10:55 PM,50.0,24.8,37,30.28,10.0,South,3.5,-,N/A,,Clear,190,2013-05-03 04:55:00
11:15 PM,48.2,24.8,40,30.27,10.0,Calm,Calm,-,N/A,,Clear,0,2013-05-03 05:15:00
11:35 PM,48.2,24.8,40,30.27,10.0,Calm,Calm,-,N/A,,Unknown,0,2013-05-03 05:35:00
11:55 PM,48.2,24.8,40,30.27,10.0,Calm,Calm,-,N/A,,Unknown,0,2013-05-03 05:55:00